Shreveport, LA

3:40 PM CST on February 24, 2017 (GMT -0600)
Shreveport Downtown

Weather History for KDTN - November, 2013

Change the Weather History Date:

Sunday, November 24, 2013

  Actual Average (KBAD) Record (KBAD)
Temperature  
Mean Temperature 38 °F -  
Max Temperature 43 °F 61 °F 80 °F (2010)
Min Temperature 32 °F 43 °F 26 °F (2003)
Degree Days  
Heating Degree Days 28    
Moisture  
Dew Point 23 °F    
Average Humidity 59    
Maximum Humidity 79    
Minimum Humidity 41    
Precipitation  
Precipitation 0.00 in - - ()
Sea Level Pressure  
Sea Level Pressure 30.48 in    
Wind  
Wind Speed 8 mph (NE)    
Max Wind Speed 14 mph    
Max Gust Speed 20 mph    
Visibility 10 miles    
Events Rain    
Averages and records for this station are not official NWS values.
T = Trace of Precipitation, MM = Missing Value Source: NWS Daily Summary

Daily Weather History Graph

Daily Weather History Graph

Search for Another Location

Airport or City:

Trip Planner

Search our weather history database for the weather conditions in past years. The results will help you decide how hot, cold, wet, or windy it might be!

Date:

Astronomy

Nov. 24, 2013 Rise Set
Actual Time 6:53 AM CST 5:10 PM CST
Civil Twilight 6:26 AM CST 5:36 PM CST
Nautical Twilight 5:56 AM CST 6:06 PM CST
Astronomical Twilight 5:26 AM CST 6:36 PM CST
Moon 11:25 PM CST 11:50 AM CST
Length of Visible Light 11h 10m
Length of Day
10h 17m
Waning Gibbous, 60% of the Moon is Illuminated
Nov 24
Waning Gibbous
Nov 25
Last Quarter
Dec 2
New
Dec 9
First Quarter
Dec 17
Full

Hourly Weather History & Observations

Time (CST) Temp. Windchill Dew Point Humidity Pressure Visibility Wind Dir Wind Speed Gust Speed Precip Events Conditions
12:53 AM 37.9 °F 32.7 °F 27.0 °F 65% 30.49 in 10.0 mi NE 6.9 mph - N/A   Clear
1:53 AM 37.0 °F 31.0 °F 26.1 °F 65% 30.51 in 10.0 mi NE 8.1 mph - N/A   Clear
2:53 AM 36.0 °F 29.6 °F 26.1 °F 67% 30.51 in 10.0 mi NNE 8.1 mph - N/A   Clear
3:53 AM 35.1 °F 28.6 °F 26.1 °F 70% 30.51 in 10.0 mi NE 8.1 mph - N/A   Clear
4:53 AM 34.0 °F 26.6 °F 26.1 °F 73% 30.53 in 10.0 mi NNE 9.2 mph - N/A   Clear
5:53 AM 33.1 °F 24.9 °F 23.0 °F 66% 30.54 in 10.0 mi NE 10.4 mph - N/A   Clear
6:53 AM 32.0 °F 24.8 °F 21.0 °F 64% 30.57 in 10.0 mi NE 8.1 mph - N/A   Clear
7:53 AM 32.0 °F 24.2 °F 19.9 °F 61% 30.58 in 10.0 mi NNE 9.2 mph 19.6 mph N/A   Clear
8:53 AM 34.0 °F 25.5 °F 21.0 °F 59% 30.58 in 10.0 mi NE 11.5 mph 18.4 mph N/A   Clear
9:53 AM 37.0 °F 29.8 °F 21.0 °F 52% 30.58 in 10.0 mi NE 10.4 mph 16.1 mph N/A   Clear
10:53 AM 39.0 °F 33.4 °F 19.9 °F 46% 30.56 in 10.0 mi ENE 8.1 mph 17.3 mph N/A   Clear
11:53 AM 39.9 °F 32.1 °F 19.9 °F 45% 30.49 in 10.0 mi NE 13.8 mph 17.3 mph N/A   Clear
12:53 PM 42.1 °F 36.1 °F 19.9 °F 41% 30.45 in 10.0 mi NE 10.4 mph 17.3 mph N/A   Scattered Clouds
1:53 PM 43.0 °F 38.8 °F 21.0 °F 42% 30.43 in 10.0 mi Variable 6.9 mph 17.3 mph N/A   Clear
2:53 PM 43.0 °F 38.2 °F 21.0 °F 42% 30.43 in 10.0 mi North 8.1 mph - N/A   Scattered Clouds
3:53 PM 42.1 °F 37.1 °F 21.9 °F 45% 30.43 in 10.0 mi North 8.1 mph - N/A   Scattered Clouds
4:53 PM 39.9 °F 35.1 °F 21.9 °F 49% 30.43 in 10.0 mi North 6.9 mph 16.1 mph N/A   Clear
5:53 PM 39.0 °F 32.8 °F 21.9 °F 50% 30.44 in 10.0 mi NE 9.2 mph - N/A   Scattered Clouds
6:53 PM 37.0 °F 29.8 °F 24.1 °F 59% 30.42 in 10.0 mi NE 10.4 mph - 0.00 in Rain Light Rain
7:53 PM 37.0 °F 33.3 °F 25.0 °F 62% 30.43 in 10.0 mi ENE 4.6 mph - 0.00 in   Overcast
8:53 PM 36.0 °F 29.6 °F 24.1 °F 62% 30.43 in 10.0 mi ENE 8.1 mph - 0.00 in   Overcast
9:53 PM 35.1 °F 29.3 °F 26.1 °F 70% 30.42 in 10.0 mi NE 6.9 mph - 0.00 in   Overcast
10:53 PM 34.0 °F 28.0 °F 27.0 °F 75% 30.40 in 10.0 mi East 6.9 mph - 0.00 in   Overcast
11:53 PM 34.0 °F 28.0 °F 28.0 °F 79% 30.38 in 10.0 mi ENE 6.9 mph - 0.00 in   Overcast